When you browse on this site, cookies collect data to enhance your experience and personalize the content and advertising you see.
Visit our Privacy Policy to learn more. By continuing to use the site, you agree to this use of cookies and data.
  • In Österreich
  • Länderverzeichnis
  • Für 7 Tage
  • Wassertemperatur
  • Wetterkarte
  • News
  • Widgets
  • user-avatar
    Anmelden

    Stündliche Wetter Jacala

    Heute, 23 Oktober, Mittwoch

    Zeit Temperatur Niederschläge Wind Luftdruck Luftfeuchtigkeit
    00:00 +16°C° 0.3 mm 1 m/S 633 mmHg 98%
    01:00 +15°C° 0.3 mm 0 m/S 633 mmHg 98%
    02:00 +14°C° 0.3 mm 0 m/S 632 mmHg 98%
    03:00 +14°C° 0 mm 0 m/S 632 mmHg 98%
    04:00 +14°C° 0 mm 0 m/S 632 mmHg 98%
    05:00 +15°C° 0 mm 1 m/S 632 mmHg 98%
    06:00 +16°C° 0.1 mm 1 m/S 632 mmHg 97%
    07:00 +16°C° 0.1 mm 1 m/S 633 mmHg 95%
    08:00 +18°C° 0.1 mm 1 m/S 633 mmHg 94%
    09:00 +19°C° 0.3 mm 1 m/S 634 mmHg 89%
    10:00 +20°C° 0.3 mm 1 m/S 634 mmHg 83%
    11:00 +21°C° 0.3 mm 1 m/S 634 mmHg 78%
    12:00 +20°C° 0.5 mm 2 m/S 633 mmHg 80%
    13:00 +20°C° 0.5 mm 2 m/S 632 mmHg 82%
    14:00 +19°C° 0.5 mm 2 m/S 631 mmHg 85%
    15:00 +18°C° 0.3 mm 2 m/S 631 mmHg 88%
    16:00 +19°C° 0.3 mm 1 m/S 631 mmHg 92%
    17:00 +18°C° 0.3 mm 1 m/S 630 mmHg 96%
    18:00 +16°C° 0.1 mm 1 m/S 631 mmHg 96%
    19:00 +16°C° 0.1 mm 1 m/S 631 mmHg 97%
    20:00 +14°C° 0.1 mm 0 m/S 632 mmHg 97%
    21:00 +14°C° 0 mm 0 m/S 632 mmHg 97%
    22:00 +14°C° 0 mm 0 m/S 631 mmHg 96%
    23:00 +14°C° 0 mm 0 m/S 631 mmHg 96%

    Morgen, 24 Oktober, Donnerstag

    Zeit Temperatur Niederschläge Wind Luftdruck Luftfeuchtigkeit
    00:00 +14°C° 0 mm 0 m/S 631 mmHg 95%
    01:00 +15°C° 0 mm 1 m/S 630 mmHg 95%
    02:00 +14°C° 0 mm 1 m/S 630 mmHg 94%
    03:00 +14°C° 0 mm 1 m/S 630 mmHg 94%
    04:00 +14°C° 0 mm 1 m/S 630 mmHg 94%
    05:00 +14°C° 0 mm 1 m/S 629 mmHg 94%
    06:00 +15°C° 0 mm 1 m/S 630 mmHg 88%
    07:00 +18°C° 0 mm 1 m/S 631 mmHg 82%
    08:00 +18°C° 0 mm 0 m/S 632 mmHg 76%
    09:00 +21°C° 0 mm 1 m/S 632 mmHg 71%
    10:00 +23°C° 0 mm 1 m/S 632 mmHg 66%
    11:00 +24°C° 0 mm 2 m/S 632 mmHg 60%
    12:00 +24°C° 0 mm 2 m/S 631 mmHg 62%
    13:00 +24°C° 0 mm 2 m/S 631 mmHg 64%
    14:00 +23°C° 0 mm 2 m/S 630 mmHg 67%
    15:00 +21°C° 0.2 mm 2 m/S 629 mmHg 75%
    16:00 +20°C° 0.2 mm 1 m/S 629 mmHg 84%
    17:00 +19°C° 0.2 mm 1 m/S 629 mmHg 92%
    18:00 +18°C° 0.1 mm 1 m/S 629 mmHg 94%
    19:00 +18°C° 0.1 mm 1 m/S 629 mmHg 96%
    20:00 +15°C° 0.1 mm 0 m/S 630 mmHg 97%
    21:00 +15°C° 0 mm 0 m/S 630 mmHg 97%
    22:00 +15°C° 0 mm 0 m/S 630 mmHg 96%
    23:00 +15°C° 0 mm 0 m/S 630 mmHg 96%

    übermorgen, 25 Oktober, Freitag

    Zeit Temperatur Niederschläge Wind Luftdruck Luftfeuchtigkeit
    00:00 +15°C° 0 mm 0 m/S 630 mmHg 96%
    01:00 +15°C° 0 mm 0 m/S 630 mmHg 95%
    02:00 +15°C° 0 mm 1 m/S 629 mmHg 95%
    03:00 +15°C° 0 mm 1 m/S 630 mmHg 95%
    04:00 +15°C° 0 mm 1 m/S 630 mmHg 95%
    05:00 +15°C° 0 mm 1 m/S 630 mmHg 95%
    06:00 +16°C° 0.2 mm 1 m/S 631 mmHg 93%
    07:00 +18°C° 0.2 mm 1 m/S 632 mmHg 91%
    08:00 +19°C° 0.2 mm 1 m/S 633 mmHg 89%
    09:00 +18°C° 1 mm 1 m/S 632 mmHg 91%
    10:00 +16°C° 1 mm 2 m/S 632 mmHg 94%
    11:00 +16°C° 1 mm 2 m/S 631 mmHg 96%
    12:00 +15°C° 0.5 mm 2 m/S 631 mmHg 96%
    13:00 +14°C° 0.5 mm 2 m/S 630 mmHg 97%
    14:00 +13°C° 0.5 mm 2 m/S 629 mmHg 97%
    15:00 +13°C° 0.2 mm 1 m/S 630 mmHg 97%
    16:00 +13°C° 0.2 mm 1 m/S 630 mmHg 97%
    17:00 +12°C° 0.2 mm 1 m/S 631 mmHg 97%
    18:00 +12°C° 0.1 mm 1 m/S 631 mmHg 97%
    19:00 +12°C° 0.1 mm 1 m/S 632 mmHg 97%
    20:00 +11°C° 0.1 mm 1 m/S 632 mmHg 97%
    21:00 +11°C° 0.1 mm 1 m/S 632 mmHg 96%
    22:00 +10°C° 0.1 mm 1 m/S 632 mmHg 96%
    23:00 +10°C° 0.1 mm 1 m/S 632 mmHg 96%

    26 Oktober, Samstag

    Zeit Temperatur Niederschläge Wind Luftdruck Luftfeuchtigkeit
    00:00 +10°C° 0 mm 1 m/S 631 mmHg 95%
    01:00 +10°C° 0 mm 1 m/S 631 mmHg 95%
    02:00 +9°C° 0 mm 0 m/S 631 mmHg 94%
    03:00 +9°C° 0 mm 0 m/S 631 mmHg 93%
    04:00 +8°C° 0 mm 0 m/S 630 mmHg 92%
    05:00 +9°C° 0 mm 1 m/S 630 mmHg 92%
    06:00 +10°C° 0 mm 1 m/S 631 mmHg 87%
    07:00 +11°C° 0 mm 1 m/S 632 mmHg 82%
    08:00 +12°C° 0 mm 1 m/S 632 mmHg 77%
    09:00 +14°C° 0 mm 1 m/S 632 mmHg 71%
    10:00 +16°C° 0 mm 1 m/S 632 mmHg 65%
    11:00 +18°C° 0 mm 2 m/S 632 mmHg 59%
    12:00 +18°C° 0 mm 2 m/S 632 mmHg 59%
    13:00 +18°C° 0 mm 2 m/S 631 mmHg 60%
    14:00 +18°C° 0 mm 2 m/S 630 mmHg 60%
    15:00 +16°C° 0 mm 1 m/S 630 mmHg 67%
    16:00 +14°C° 0 mm 1 m/S 629 mmHg 75%
    17:00 +13°C° 0 mm 1 m/S 629 mmHg 83%
    18:00 +12°C° 0 mm 1 m/S 629 mmHg 84%
    19:00 +11°C° 0 mm 0 m/S 630 mmHg 85%
    20:00 +11°C° 0 mm 0 m/S 630 mmHg 85%
    21:00 +11°C° 0 mm 0 m/S 630 mmHg 85%
    22:00 +11°C° 0 mm 0 m/S 630 mmHg 85%
    23:00 +11°C° 0 mm 0 m/S 630 mmHg 84%

    27 Oktober, Sonntag

    Zeit Temperatur Niederschläge Wind Luftdruck Luftfeuchtigkeit
    00:00 +12°C° 0 mm 1 m/S 629 mmHg 84%
    01:00 +12°C° 0 mm 1 m/S 629 mmHg 84%
    02:00 +12°C° 0 mm 1 m/S 629 mmHg 84%
    03:00 +12°C° 0 mm 1 m/S 629 mmHg 85%
    04:00 +12°C° 0 mm 1 m/S 629 mmHg 85%
    05:00 +13°C° 0 mm 1 m/S 629 mmHg 86%
    06:00 +15°C° 0 mm 1 m/S 630 mmHg 80%
    07:00 +16°C° 0 mm 0 m/S 631 mmHg 73%
    08:00 +19°C° 0 mm 0 m/S 632 mmHg 67%
    09:00 +22°C° 0 mm 1 m/S 632 mmHg 64%
    10:00 +23°C° 0 mm 1 m/S 632 mmHg 61%
    11:00 +24°C° 0 mm 2 m/S 632 mmHg 58%
    12:00 +24°C° 0.3 mm 2 m/S 632 mmHg 61%
    13:00 +24°C° 0.3 mm 2 m/S 631 mmHg 63%
    14:00 +23°C° 0.3 mm 2 m/S 630 mmHg 66%
    15:00 +20°C° 0.1 mm 2 m/S 630 mmHg 75%
    16:00 +19°C° 0.1 mm 1 m/S 629 mmHg 84%
    17:00 +16°C° 0.1 mm 1 m/S 629 mmHg 93%
    18:00 +16°C° 0 mm 1 m/S 629 mmHg 94%
    19:00 +15°C° 0 mm 1 m/S 630 mmHg 95%
    20:00 +14°C° 0 mm 0 m/S 630 mmHg 96%
    21:00 +13°C° 0 mm 0 m/S 630 mmHg 95%
    22:00 +13°C° 0 mm 0 m/S 630 mmHg 94%
    23:00 +13°C° 0 mm 0 m/S 630 mmHg 93%

    28 Oktober, Montag

    Zeit Temperatur Niederschläge Wind Luftdruck Luftfeuchtigkeit
    00:00 +13°C° 0 mm 0 m/S 630 mmHg 93%
    01:00 +13°C° 0 mm 0 m/S 630 mmHg 93%
    02:00 +12°C° 0 mm 0 m/S 629 mmHg 93%
    03:00 +12°C° 0 mm 0 m/S 630 mmHg 94%
    04:00 +12°C° 0 mm 0 m/S 630 mmHg 94%
    05:00 +12°C° 0 mm 0 m/S 630 mmHg 95%
    06:00 +13°C° 0 mm 0 m/S 630 mmHg 93%
    07:00 +14°C° 0 mm 0 m/S 631 mmHg 90%
    08:00 +16°C° 0 mm 1 m/S 632 mmHg 88%
    09:00 +16°C° 0 mm 1 m/S 632 mmHg 85%
    10:00 +18°C° 0 mm 1 m/S 632 mmHg 83%
    11:00 +18°C° 0 mm 2 m/S 632 mmHg 80%
    12:00 +17°C° 0 mm 2 m/S 632 mmHg 80%
    13:00 +17°C° 0 mm 2 m/S 632 mmHg 80%
    14:00 +17°C° 0 mm 2 m/S 631 mmHg 81%
    15:00 +16°C° 0.1 mm 2 m/S 631 mmHg 85%
    16:00 +15°C° 0.1 mm 2 m/S 632 mmHg 90%
    17:00 +14°C° 0.1 mm 1 m/S 632 mmHg 94%
    18:00 +14°C° 0.2 mm 1 m/S 633 mmHg 95%
    19:00 +14°C° 0.2 mm 1 m/S 633 mmHg 96%
    20:00 +14°C° 0.2 mm 1 m/S 634 mmHg 97%
    21:00 +13°C° 0.6 mm 1 m/S 634 mmHg 97%
    22:00 +13°C° 0.6 mm 1 m/S 634 mmHg 97%
    23:00 +13°C° 0.6 mm 2 m/S 634 mmHg 98%

    29 Oktober, Dienstag

    Zeit Temperatur Niederschläge Wind Luftdruck Luftfeuchtigkeit
    00:00 +13°C° 0.2 mm 1 m/S 633 mmHg 98%
    01:00 +12°C° 0.2 mm 1 m/S 633 mmHg 98%
    02:00 +12°C° 0.2 mm 1 m/S 632 mmHg 97%
    03:00 +12°C° 0 mm 1 m/S 633 mmHg 97%
    04:00 +12°C° 0 mm 1 m/S 633 mmHg 97%
    05:00 +12°C° 0 mm 1 m/S 633 mmHg 97%
    06:00 +11°C° 0.1 mm 1 m/S 633 mmHg 97%
    07:00 +11°C° 0.1 mm 1 m/S 633 mmHg 97%
    08:00 +11°C° 0.1 mm 1 m/S 634 mmHg 96%
    09:00 +12°C° 0 mm 1 m/S 634 mmHg 95%
    10:00 +12°C° 0 mm 1 m/S 634 mmHg 93%
    11:00 +13°C° 0 mm 1 m/S 633 mmHg 91%
    12:00 +13°C° 0 mm 1 m/S 633 mmHg 89%
    13:00 +14°C° 0 mm 1 m/S 632 mmHg 86%
    14:00 +14°C° 0 mm 1 m/S 632 mmHg 84%
    15:00 +14°C° 0 mm 1 m/S 632 mmHg 87%
    16:00 +13°C° 0 mm 1 m/S 632 mmHg 89%
    17:00 +12°C° 0 mm 1 m/S 632 mmHg 92%
    18:00 +12°C° 0 mm 1 m/S 632 mmHg 92%
    19:00 +12°C° 0 mm 1 m/S 633 mmHg 93%
    20:00 +11°C° 0 mm 0 m/S 633 mmHg 93%
    21:00 +10°C° 0 mm 0 m/S 633 mmHg 93%
    22:00 +10°C° 0 mm 0 m/S 633 mmHg 94%
    23:00 +10°C° 0 mm 0 m/S 633 mmHg 95%
    Mehr zeigen